| time (UTC) | temp F | wind direction | speed knots | gust knots | rain 1hr in | rain 24hr in | rain mn in | humidity % | barometer mb |
| 20260506231525 | 55 | 139 | 1.7 | 5.2 | 0.00 | 0.01 | 0.01 | 66 | 1007.8 |
| 20260506230027 | 54 | 139 | 0.0 | 4.3 | 0.00 | 0.01 | 0.01 | 66 | 1007.7 |
| 20260506224523 | 55 | 139 | 0.0 | 4.3 | 0.00 | 0.01 | 0.01 | 66 | 1007.6 |
| 20260506223022 | 55 | 203 | 1.7 | 5.2 | 0.00 | 0.01 | 0.01 | 66 | 1007.5 |
| 20260506221521 | 55 | 139 | 1.7 | 5.2 | 0.00 | 0.01 | 0.01 | 66 | 1007.6 |
| 20260506220021 | 55 | 135 | 2.6 | 5.2 | 0.00 | 0.01 | 0.01 | 66 | 1007.6 |
| 20260506214519 | 55 | 139 | 3.5 | 7.0 | 0.00 | 0.01 | 0.01 | 66 | 1007.4 |
| 20260506213019 | 56 | 203 | 2.6 | 6.1 | 0.00 | 0.01 | 0.01 | 66 | 1007.1 |
| 20260506211517 | 56 | 139 | 2.6 | 7.0 | 0.00 | 0.01 | 0.01 | 67 | 1006.9 |
| 20260506210017 | 54 | 203 | 4.3 | 7.8 | 0.00 | 0.01 | 0.01 | 67 | 1006.8 |
| 20260506204515 | 54 | 203 | 4.3 | 7.8 | 0.00 | 0.01 | 0.01 | 66 | 1007.0 |
| 20260506203014 | 57 | 203 | 2.6 | 7.0 | 0.00 | 0.01 | 0.01 | 64 | 1007.1 |
| 20260506201512 | 66 | 203 | 3.5 | 7.0 | 0.00 | 0.01 | 0.01 | 63 | 1007.1 |
| 20260506200011 | 65 | 203 | 1.7 | 7.0 | 0.00 | 0.01 | 0.01 | 64 | 1007.3 |
| 20260506194603 | 63 | 203 | 4.3 | 9.6 | 0.00 | 0.01 | 0.01 | 75 | 1007.5 |
| 20260506193033 | 59 | 203 | 1.7 | 11.3 | 0.00 | 0.01 | 0.01 | 76 | 1007.7 |
| 20260506191528 | 56 | 131 | 0.9 | 6.1 | 0.00 | 0.01 | 0.01 | 68 | 1007.7 |
| 20260506190026 | 56 | 98 | 1.7 | 4.3 | 0.00 | 0.01 | 0.01 | 69 | 1007.7 |
| 20260506184526 | 56 | 123 | 2.6 | 7.0 | 0.00 | 0.01 | 0.01 | 69 | 1007.7 |
| 20260506183023 | 55 | 124 | 1.7 | 7.8 | 0.00 | 0.01 | 0.01 | 69 | 1007.8 |
| 20260506181521 | 54 | 136 | 2.6 | 7.8 | 0.01 | 0.01 | 0.01 | 69 | 1008.0 |
| 20260506180052 | 54 | 203 | 5.2 | 9.6 | 0.01 | 0.01 | 0.01 | 69 | 1008.1 |
| 20260506174557 | 54 | 203 | 4.3 | 8.7 | 0.01 | 0.01 | 0.01 | 68 | 1008.3 |
| 20260506173043 | 55 | 203 | 3.5 | 7.8 | 0.01 | 0.01 | 0.01 | 68 | 1008.5 |
| 20260506171541 | 55 | 131 | 3.5 | 6.1 | 0.00 | 0.00 | 0.00 | 67 | 1008.6 |
| 20260506170043 | 55 | 137 | 3.5 | 11.3 | 0.00 | 0.00 | 0.00 | 67 | 1008.9 |
| 20260506164537 | 55 | 203 | 1.7 | 7.8 | 0.00 | 0.00 | 0.00 | 66 | 1009.6 |
| 20260506163009 | 55 | 203 | 1.7 | 6.1 | 0.00 | 0.00 | 0.00 | 65 | 1009.7 |
| 20260506161506 | 56 | 203 | 2.6 | 9.6 | 0.00 | 0.00 | 0.00 | 64 | 1009.7 |
| 20260506160035 | 57 | 139 | 4.3 | 8.7 | 0.00 | 0.00 | 0.00 | 63 | 1009.6 |
| 20260506154536 | 58 | 203 | 2.6 | 7.0 | 0.00 | 0.00 | 0.00 | 63 | 1009.8 |
| 20260506153003 | 58 | 133 | 0.9 | 8.7 | 0.00 | 0.00 | 0.00 | 63 | 1009.7 |
| 20260506151502 | 58 | 203 | 2.6 | 8.7 | 0.00 | 0.00 | 0.00 | 63 | 1009.8 |
| 20260506150104 | 58 | 203 | 3.5 | 7.8 | 0.00 | 0.00 | 0.00 | 63 | 1009.8 |
| 20260506144612 | 57 | 123 | 2.6 | 10.4 | 0.00 | 0.00 | 0.00 | 63 | 1009.7 |
| 20260506143057 | 57 | 203 | 2.6 | 9.6 | 0.00 | 0.00 | 0.00 | 64 | 1009.7 |
| 20260506141552 | 55 | 203 | 4.3 | 11.3 | 0.00 | 0.00 | 0.00 | 65 | 1009.6 |
| 20260506140103 | 55 | 203 | 7.0 | 11.3 | 0.00 | 0.00 | 0.00 | 65 | 1009.6 |
| 20260506134546 | 55 | 203 | 6.1 | 10.4 | 0.00 | 0.00 | 0.00 | 65 | 1010.0 |
| 20260506133056 | 55 | 203 | 7.0 | 9.6 | 0.00 | 0.00 | 0.00 | 65 | 1010.0 |
| 20260506131546 | 54 | 203 | 4.3 | 8.7 | 0.00 | 0.00 | 0.00 | 64 | 1010.3 |
| 20260506130059 | 54 | 131 | 5.2 | 10.4 | 0.00 | 0.00 | 0.00 | 65 | 1010.1 |
| 20260506124535 | 53 | 203 | 5.2 | 7.8 | 0.00 | 0.00 | 0.00 | 65 | 1010.2 |
| 20260506123039 | 53 | 203 | 4.3 | 8.7 | 0.00 | 0.00 | 0.00 | 64 | 1010.2 |
| 20260506121532 | 54 | 134 | 4.3 | 8.7 | 0.00 | 0.00 | 0.00 | 63 | 1010.4 |
| 20260506120033 | 56 | 203 | 3.5 | 8.7 | 0.00 | 0.00 | 0.00 | 61 | 1010.3 |
| 20260506114530 | 66 | 203 | 4.3 | 11.3 | 0.00 | 0.00 | 0.00 | 58 | 1010.4 |
| 20260506113036 | 61 | 203 | 1.7 | 9.6 | 0.00 | 0.00 | 0.00 | 65 | 1010.6 |
| 20260506111532 | 54 | 203 | 0.9 | 7.8 | 0.00 | 0.00 | 0.00 | 67 | 1010.6 |
| 20260506110038 | 54 | 203 | 4.3 | 7.8 | 0.00 | 0.00 | 0.00 | 66 | 1010.5 |
| 20260506104528 | 54 | 203 | 0.9 | 7.0 | 0.00 | 0.00 | 0.00 | 67 | 1010.6 |
| 20260506103026 | 54 | 203 | 1.7 | 4.3 | 0.00 | 0.00 | 0.00 | 67 | 1010.4 |
| 20260506101532 | 53 | 139 | 2.6 | 6.1 | 0.00 | 0.00 | 0.00 | 67 | 1010.3 |
| 20260506100023 | 53 | 203 | 1.7 | 5.2 | 0.00 | 0.00 | 0.00 | 66 | 1010.2 |
| 20260506094525 | 54 | 203 | 3.5 | 6.1 | 0.00 | 0.00 | 0.00 | 66 | 1010.3 |
| 20260506093030 | 55 | 136 | 1.7 | 4.3 | 0.00 | 0.00 | 0.00 | 67 | 1010.2 |
| 20260506091520 | 54 | 203 | 1.7 | 5.2 | 0.00 | 0.00 | 0.00 | 66 | 1010.4 |
| 20260506090017 | 54 | 203 | 2.6 | 6.1 | 0.00 | 0.00 | 0.00 | 65 | 1010.4 |
| 20260506084517 | 55 | 122 | 2.6 | 7.0 | 0.00 | 0.00 | 0.00 | 65 | 1010.4 |
| 20260506083025 | 55 | 203 | 0.9 | 6.1 | 0.00 | 0.00 | 0.00 | 66 | 1010.6 |
| 20260506081517 | 55 | 203 | 1.7 | 6.1 | 0.00 | 0.00 | 0.00 | 66 | 1010.6 |
| 20260506073013 | 54 | 203 | 2.6 | 6.1 | 0.00 | 0.00 | 0.00 | 65 | 1010.6 |
| 20260506071512 | 54 | 203 | 3.5 | 7.8 | 0.00 | 0.00 | 0.00 | 65 | 1010.9 |
| 20260506061509 | 56 | 203 | 0.9 | 6.1 | 0.00 | 0.00 | 0.00 | 64 | 1010.8 |
| 20260506044501 | 56 | 203 | 1.7 | 6.1 | 0.00 | 0.00 | 0.00 | 64 | 1011.1 |
| 20260506043002 | 56 | 203 | 4.3 | 8.7 | 0.00 | 0.00 | 0.00 | 64 | 1011.1 |
| 20260506041502 | 56 | 123 | 4.3 | 7.0 | 0.00 | 0.00 | 0.00 | 63 | 1011.2 |
| 20260506040100 | 57 | 203 | 3.5 | 8.7 | 0.00 | 0.00 | 0.00 | 62 | 1011.2 |
| 20260506034530 | 59 | 134 | 3.5 | 8.7 | 0.00 | 0.00 | 0.00 | 59 | 1011.3 |
| 20260506033030 | 64 | 203 | 3.5 | 11.3 | 0.00 | 0.00 | 0.00 | 52 | 1011.2 |
| 20260506031541 | 68 | 203 | 1.7 | 9.6 | 0.00 | 0.00 | 0.00 | 52 | 1011.1 |
| 20260506030030 | 68 | 203 | 1.7 | 10.4 | 0.00 | 0.00 | 0.00 | 53 | 1011.0 |
| 20260506024532 | 68 | 203 | 1.7 | 13.0 | 0.00 | 0.00 | 0.00 | 52 | 1011.0 |
| 20260506023027 | 69 | 203 | 4.3 | 12.2 | 0.00 | 0.00 | 0.00 | 52 | 1011.0 |
| 20260506021523 | 69 | 203 | 4.3 | 17.4 | 0.00 | 0.00 | 0.00 | 51 | 1011.1 |
| 20260506020024 | 69 | 203 | 3.5 | 10.4 | 0.00 | 0.00 | 0.00 | 49 | 1011.0 |
| 20260506014523 | 69 | 203 | 3.5 | 13.0 | 0.00 | 0.00 | 0.00 | 49 | 1010.8 |
| 20260506013022 | 68 | 203 | 2.6 | 10.4 | 0.00 | 0.00 | 0.00 | 50 | 1010.7 |
| 20260506011518 | 62 | 203 | 1.7 | 7.8 | 0.00 | 0.00 | 0.00 | 57 | 1010.6 |
| 20260506010036 | 62 | 129 | 3.5 | 9.6 | 0.00 | 0.00 | 0.00 | 54 | 1010.4 |
| 20260506004512 | 63 | 137 | 2.6 | 6.1 | 0.00 | 0.00 | 0.00 | 55 | 1010.3 |
| 20260506003012 | 64 | 203 | 2.6 | 6.1 | 0.00 | 0.00 | 0.00 | 55 | 1010.3 |
| 20260506001509 | 61 | 133 | 1.7 | 7.0 | 0.00 | 0.00 | 0.00 | 60 | 1010.1 |
| 20260506000013 | 58 | 130 | 5.2 | 9.6 | 0.00 | 0.00 | 0.00 | 59 | 1010.0 |
| 20260505234509 | 63 | 203 | 4.3 | 7.0 | 0.00 | 0.00 | 0.00 | 54 | 1009.9 |
| 20260505233009 | 64 | 135 | 1.7 | 6.1 | 0.00 | 0.00 | 0.00 | 55 | 1009.6 |